Location: Saint-Usage
(47.1052°N, 5.2587°E)
Time: 09:09:07
(UTC+01:00)

NOAA 19 - Pass Details

Date: 29 November 2021
Orbit: 841 x 860 km, 99.2° (Epoch: 26 January)

Event Time Altitude Azimuth Distance (km) Brightness Sun altitude
Rises 20:33:48 0° 206° (SSW) 3,384 8.5 -37.0°
Reaches altitude 10° 20:36:48 10° 223° (SW) 2,454 7.9 -37.5°
Maximum altitude 20:40:41 20° 269° (W) 1,863 7.5 -38.1°
Drops below altitude 10° 20:44:37 10° 315° (NW) 2,471 8.1 -38.8°
Sets 20:47:40 0° 332° (NNW) 3,414 8.8 -39.3°
